Dublin, VA

9:00 PM EDT on March 27, 2017 (GMT -0400)
New River Valley

Weather History for KPSK - January, 2014

Change the Weather History Date:

Monday, January 27, 2014

  Actual Average (KBCB) Record (KBCB)
Temperature  
Mean Temperature 32 °F -  
Max Temperature 48 °F 40 °F 68 °F (1967)
Min Temperature 15 °F 18 °F -4 °F (1987)
Degree Days  
Heating Degree Days 34    
Moisture  
Dew Point 19 °F    
Average Humidity 56    
Maximum Humidity 75    
Minimum Humidity 35    
Precipitation  
Precipitation 0.00 in - - ()
Sea Level Pressure  
Sea Level Pressure 29.89 in    
Wind  
Wind Speed 10 mph (West)    
Max Wind Speed 17 mph    
Max Gust Speed 24 mph    
Visibility 10 miles    
Events      
Averages and records for this station are not official NWS values.
T = Trace of Precipitation, MM = Missing Value Source: NWS Daily Summary

Daily Weather History Graph

Daily Weather History Graph

Search for Another Location

Airport or City:

Trip Planner

Search our weather history database for the weather conditions in past years. The results will help you decide how hot, cold, wet, or windy it might be!

Date:

Astronomy

Jan. 27, 2014 Rise Set
Actual Time 7:29 AM EST 5:42 PM EST
Civil Twilight 7:01 AM EST 6:09 PM EST
Nautical Twilight 6:30 AM EST 6:41 PM EST
Astronomical Twilight 5:59 AM EST 7:11 PM EST
Moon 4:07 AM EST (1/27) 2:27 PM EST (1/27)
Length of Visible Light 11h 08m
Length of Day
10h 12m
Waning Crescent, 15% of the Moon is Illuminated
Jan 27
Waning Crescent
Jan 30
New
Feb 6
First Quarter
Feb 14
Full
Feb 22
Last Quarter

Hourly Weather History & Observations

Time (EST) Temp. Windchill Dew Point Humidity Pressure Visibility Wind Dir Wind Speed Gust Speed Precip Events Conditions
12:15 AM 33.8 °F 30.8 °F 19.4 °F 56% 29.76 in 10.0 mi West 3.5 mph - N/A   Clear
12:35 AM 32.0 °F 28.7 °F 19.4 °F 60% 29.76 in 10.0 mi WNW 3.5 mph - N/A   Clear
12:55 AM 32.0 °F - 21.2 °F 64% 29.75 in 10.0 mi Calm Calm - N/A   Clear
1:15 AM 37.4 °F 30.3 °F 26.6 °F 65% 29.75 in 10.0 mi SSW 10.4 mph - N/A   Clear
1:35 AM 39.2 °F 32.0 °F 26.6 °F 61% 29.75 in 10.0 mi SSW 11.5 mph - N/A   Clear
1:55 AM 39.2 °F 32.5 °F 26.6 °F 61% 29.75 in 10.0 mi SSW 10.4 mph - N/A   Clear
2:15 AM 41.0 °F 34.3 °F 28.4 °F 61% 29.75 in 10.0 mi SW 11.5 mph - N/A   Clear
2:35 AM 42.8 °F 35.8 °F 28.4 °F 57% 29.75 in 10.0 mi WSW 13.8 mph - N/A   Clear
2:55 AM 42.8 °F 35.1 °F 28.4 °F 57% 29.75 in 10.0 mi WSW 16.1 mph 20.7 mph N/A   Clear
3:15 AM 42.8 °F 35.8 °F 28.4 °F 57% 29.76 in 10.0 mi WSW 13.8 mph - N/A   Clear
3:35 AM 42.8 °F 35.8 °F 28.4 °F 57% 29.76 in 10.0 mi SW 13.8 mph 19.6 mph N/A   Clear
3:55 AM 42.8 °F 35.4 °F 28.4 °F 57% 29.77 in 10.0 mi SW 15.0 mph - N/A   Scattered Clouds
4:15 AM 42.8 °F 36.2 °F 28.4 °F 57% 29.76 in 10.0 mi WSW 12.7 mph 17.3 mph N/A   Clear
4:35 AM 42.8 °F 36.6 °F 28.4 °F 57% 29.75 in 10.0 mi WSW 11.5 mph 15.0 mph N/A   Clear
4:55 AM 41.0 °F 34.7 °F 28.4 °F 61% 29.75 in 10.0 mi SW 10.4 mph - N/A   Clear
5:15 AM 39.2 °F 32.5 °F 28.4 °F 65% 29.76 in 10.0 mi SW 10.4 mph - N/A   Clear
5:35 AM 42.8 °F 37.0 °F 28.4 °F 57% 29.75 in 10.0 mi SW 10.4 mph - N/A   Clear
5:55 AM 39.2 °F 33.0 °F 28.4 °F 65% 29.76 in 10.0 mi SW 9.2 mph - N/A   Scattered Clouds
6:15 AM 42.8 °F 37.0 °F 28.4 °F 57% 29.77 in 10.0 mi SW 10.4 mph - N/A   Mostly Cloudy
6:35 AM 42.8 °F 36.6 °F 28.4 °F 57% 29.77 in 10.0 mi WSW 11.5 mph - N/A   Overcast
6:55 AM 44.6 °F 38.8 °F 28.4 °F 53% 29.77 in 10.0 mi WSW 11.5 mph - N/A   Overcast
7:15 AM 42.8 °F 36.6 °F 28.4 °F 57% 29.77 in 10.0 mi WSW 11.5 mph - N/A   Mostly Cloudy
7:35 AM 42.8 °F 36.6 °F 28.4 °F 57% 29.78 in 10.0 mi WSW 11.5 mph - N/A   Mostly Cloudy
7:55 AM 42.8 °F 37.0 °F 28.4 °F 57% 29.79 in 10.0 mi WSW 10.4 mph - N/A   Mostly Cloudy
8:15 AM 42.8 °F 36.2 °F 28.4 °F 57% 29.80 in 10.0 mi WSW 12.7 mph - N/A   Mostly Cloudy
8:35 AM 42.8 °F 37.0 °F 30.2 °F 61% 29.81 in 10.0 mi WSW 10.4 mph - N/A   Mostly Cloudy
8:55 AM 44.6 °F 38.8 °F 30.2 °F 57% 29.81 in 10.0 mi WSW 11.5 mph - N/A   Mostly Cloudy
9:15 AM 44.6 °F 38.8 °F 30.2 °F 57% 29.81 in 10.0 mi WSW 11.5 mph 18.4 mph N/A   Mostly Cloudy
9:35 AM 46.4 °F 40.7 °F 30.2 °F 53% 29.81 in 10.0 mi WSW 12.7 mph 19.6 mph N/A   Scattered Clouds
9:55 AM 48.2 °F - 30.2 °F 50% 29.82 in 10.0 mi West 15.0 mph 20.7 mph N/A   Mostly Cloudy
10:15 AM 46.4 °F 40.4 °F 30.2 °F 53% 29.83 in 10.0 mi WSW 13.8 mph 20.7 mph N/A   Mostly Cloudy
10:35 AM 44.6 °F 38.4 °F 30.2 °F 57% 29.84 in 10.0 mi West 12.7 mph 17.3 mph N/A   Mostly Cloudy
10:55 AM 39.2 °F 30.2 °F 30.2 °F 70% 29.86 in 10.0 mi WNW 17.3 mph 21.9 mph N/A   Overcast
11:15 AM 37.4 °F 29.3 °F 28.4 °F 70% 29.89 in 10.0 mi WNW 12.7 mph - N/A   Overcast
11:35 AM 35.6 °F 25.9 °F 26.6 °F 70% 29.90 in 10.0 mi West 16.1 mph - N/A   Overcast
11:55 AM 35.6 °F 26.6 °F 26.6 °F 70% 29.90 in 10.0 mi WNW 13.8 mph 19.6 mph N/A   Overcast
12:15 PM 33.8 °F 26.4 °F 26.6 °F 75% 29.89 in 10.0 mi West 9.2 mph - N/A   Overcast
12:35 PM 33.8 °F 25.3 °F 26.6 °F 75% 29.87 in 10.0 mi WNW 11.5 mph - N/A   Mostly Cloudy
12:55 PM 33.8 °F 24.8 °F 24.8 °F 70% 29.87 in 10.0 mi West 12.7 mph - N/A   Mostly Cloudy
1:15 PM 33.8 °F 24.3 °F 24.8 °F 70% 29.86 in 10.0 mi WNW 13.8 mph - N/A   Overcast
1:35 PM - - - N/A% - - North - - N/A   Unknown
2:15 PM 30.2 °F 19.3 °F 21.2 °F 69% 29.88 in 10.0 mi NW 15.0 mph 19.6 mph N/A   Overcast
2:16 PM 30.2 °F 19.8 °F 21.2 °F 69% 29.88 in 10.0 mi NW 13.8 mph 19.6 mph N/A   Overcast
2:35 PM 30.2 °F 20.8 °F 21.2 °F 69% 29.89 in 10.0 mi WNW 11.5 mph 18.4 mph N/A   Overcast
2:55 PM 30.2 °F 20.8 °F 19.4 °F 64% 29.89 in 10.0 mi West 11.5 mph 16.1 mph N/A   Overcast
3:15 PM 30.2 °F 21.9 °F 17.6 °F 60% 29.90 in 10.0 mi NW 9.2 mph - N/A   Overcast
3:35 PM 30.2 °F 19.8 °F 17.6 °F 60% 29.91 in 10.0 mi WNW 13.8 mph - N/A   Overcast
3:55 PM 28.4 °F 16.6 °F 15.8 °F 59% 29.92 in 10.0 mi WNW 16.1 mph - N/A   Overcast
4:15 PM 28.4 °F 17.5 °F 12.2 °F 51% 29.93 in 10.0 mi West 13.8 mph - N/A   Overcast
4:35 PM 28.4 °F 17.5 °F 12.2 °F 51% 29.94 in 10.0 mi WNW 13.8 mph - N/A   Overcast
4:55 PM 26.6 °F 17.5 °F 12.2 °F 55% 29.94 in 10.0 mi West 9.2 mph - N/A   Mostly Cloudy
5:15 PM 26.6 °F 15.7 °F 10.4 °F 51% 29.95 in 10.0 mi NW 12.7 mph - N/A   Scattered Clouds
5:35 PM 26.6 °F 17.5 °F 8.6 °F 47% 29.96 in 10.0 mi WNW 9.2 mph - N/A   Clear
5:55 PM 26.6 °F 14.7 °F 8.6 °F 47% 29.97 in 10.0 mi WNW 15.0 mph 19.6 mph N/A   Clear
6:15 PM 24.8 °F 12.4 °F 5.0 °F 43% 29.97 in 10.0 mi NW 15.0 mph - N/A   Clear
6:35 PM 24.8 °F 12.9 °F 5.0 °F 43% 29.98 in 10.0 mi WNW 13.8 mph 20.7 mph N/A   Clear
6:55 PM 24.8 °F 14.0 °F 5.0 °F 43% 30.00 in 10.0 mi WNW 11.5 mph - N/A   Clear
7:15 PM 23.0 °F 10.1 °F 3.2 °F 43% 30.01 in 10.0 mi WNW 15.0 mph 19.6 mph N/A   Clear
7:35 PM 23.0 °F 12.4 °F 3.2 °F 43% 30.03 in 10.0 mi WNW 10.4 mph - N/A   Clear
7:55 PM 21.2 °F 9.5 °F 3.2 °F 46% 30.04 in 10.0 mi NW 11.5 mph - N/A   Clear
8:15 PM 21.2 °F 9.5 °F 3.2 °F 46% 30.05 in 10.0 mi NW 11.5 mph - N/A   Clear
8:35 PM 19.4 °F 6.6 °F 1.4 °F 46% 30.06 in 10.0 mi NW 12.7 mph 21.9 mph N/A   Clear
8:55 PM 19.4 °F 6.6 °F 1.4 °F 46% 30.06 in 10.0 mi WNW 12.7 mph 19.6 mph N/A   Clear
9:15 PM 19.4 °F 7.2 °F 1.4 °F 46% 30.08 in 10.0 mi WNW 11.5 mph - N/A   Clear
9:35 PM 19.4 °F 6.0 °F 1.4 °F 46% 30.09 in 10.0 mi NW 13.8 mph 19.6 mph N/A   Clear
9:55 PM 19.4 °F 6.6 °F -0.4 °F 42% 30.09 in 10.0 mi WNW 12.7 mph 24.2 mph N/A   Clear
10:15 PM 17.6 °F 5.7 °F 1.4 °F 49% 30.10 in 10.0 mi WNW 10.4 mph - N/A   Clear
10:35 PM 17.6 °F 4.3 °F -2.2 °F 42% 30.11 in 10.0 mi NW 12.7 mph 19.6 mph N/A   Clear
10:55 PM 17.6 °F 3.2 °F -5.8 °F 35% 30.12 in 10.0 mi WNW 15.0 mph - N/A   Clear
11:15 PM 17.6 °F 5.7 °F -2.2 °F 42% 30.13 in 10.0 mi WNW 10.4 mph - N/A   Clear
11:35 PM 15.8 °F 2.7 °F -4.0 °F 41% 30.13 in 10.0 mi WNW 11.5 mph - N/A   Clear
11:55 PM 15.8 °F 6.1 °F -2.2 °F 45% 30.15 in 10.0 mi NW 6.9 mph - N/A   Clear